Wind_Speed
12 12 11 11 10 10 9 9 10 10 10 10 11 11 11 11 11 12 12 12 11 11 11 11 11 12 12 11 11 10 9 9 9 8 8 8 8 7 6 6 6 5 5
11 11 11 10 10 9 9 9 9 9 10 10 11 11 11 11 11 12 13 13 13 13 13 13 13 13 14 13 13 12 12 11 11 11 10 10 9 9 8 8 7 7 6
11 10 10 10 10 9 9 9 9 8 9 9 9 10 11 12 12 13 13 14 14 15 14 15 15 15 15 15 15 14 14 13 13 13 12 12 11 11 10 9 9 9 8
11 10 10 10 10 9 8 8 8 8 9 9 9 10 11 11 12 13 14 14 15 16 16 15 15 16 16 16 17 16 16 16 15 15 14 14 14 13 13 12 11 10 10
11 10 10 10 10 9 8 8 8 8 8 9 10 10 11 12 13 13 14 14 15 16 16 16 16 16 17 18 18 18 18 18 17 17 17 16 16 16 15 15 14 13 13
10 10 10 9 9 9 8 8 8 8 8 9 10 10 11 12 13 14 15 15 16 16 16 17 17 18 18 19 20 20 20 19 20 19 19 19 18 18 18 18 17 16 15
9 10 9 9 8 8 8 8 7 7 8 8 9 10 11 12 13 14 14 15 15 16 17 17 18 18 19 20 20 21 21 21 21 20 21 21 21 21 20 20 20 19 19
8 9 8 7 7 7 7 7 6 7 7 7 8 9 10 11 12 13 13 14 15 16 16 16 17 18 18 19 20 21 22 21 22 22 21 22 23 23 23 22 22 22 21
7 7 7 7 6 6 6 6 6 6 7 7 7 8 9 10 11 11 11 13 14 14 15 15 16 17 18 19 20 21 22 22 22 23 23 22 23 23 24 24 25 25 24
6 6 6 6 6 5 6 6 6 6 7 7 7 8 8 8 8 9 10 11 12 13 14 15 15 16 17 18 19 21 22 23 23 24 24 24 24 25 24 25 26 26 26
6 6 6 5 5 5 5 5 6 6 6 7 7 7 8 8 8 9 9 10 11 12 13 14 15 16 17 17 18 19 20 22 23 24 25 25 25 26 26 26 26 26 27
6 6 6 5 5 4 4 4 5 5 5 6 6 7 7 8 8 9 9 10 11 12 13 13 14 15 17 18 19 20 21 22 22 24 25 26 26 27 28 28 28 28 28
7 6 5 5 4 4 4 4 4 4 5 5 6 6 7 8 8 9 10 10 11 12 12 13 14 15 16 18 18 20 21 22 23 23 24 25 27 28 28 29 29 29 30
7 6 5 5 5 5 4 4 4 4 4 5 5 6 7 8 8 9 10 10 10 11 12 12 13 14 16 17 17 18 20 21 22 23 24 25 26 27 29 29 30 31 31
7 7 6 5 4 4 4 4 4 4 5 5 6 7 7 8 8 9 9 10 11 11 12 13 13 14 15 16 17 19 19 20 22 23 24 24 25 27 28 29 30 31 31
7 7 6 5 4 4 4 4 4 5 5 6 6 7 7 8 8 9 9 10 11 11 12 13 13 14 15 16 17 19 20 21 22 23 24 25 26 27 27 28 29 31 32
8 7 6 5 4 4 4 4 5 5 6 6 7 7 8 8 9 9 10 11 11 12 13 13 13 14 15 16 17 18 19 20 21 22 23 25 26 27 27 28 29 30 32
7 7 6 6 5 5 5 5 6 6 7 8 8 8 9 9 10 11 11 12 13 13 14 14 14 15 16 16 17 18 19 20 21 22 23 24 25 27 29 30 30 31 32
8 8 8 7 7 7 7 7 8 8 9 9 9 10 10 11 11 12 13 14 15 15 16 16 16 16 17 18 19 19 20 20 21 22 24 25 26 27 29 30 31 32 32
9 9 9 9 9 9 9 10 10 10 11 11 11 12 12 12 13 14 15 15 16 17 17 18 18 18 19 19 20 20 21 22 22 23 25 26 26 27 28 29 31 32 33
11 11 11 11 11 11 12 12 12 13 13 13 14 14 14 15 15 16 16 17 17 18 18 19 19 20 21 21 21 22 23 24 24 24 25 26 27 28 29 30 31 32 33
12 13 13 13 13 14 14 14 15 15 15 16 16 16 17 17 18 18 18 19 19 19 20 20 21 21 22 23 23 24 24 25 26 26 26 27 28 29 30 30 31 32 33
14 14 14 15 15 16 16 16 16 17 17 18 18 19 19 19 20 20 21 21 21 21 22 22 22 23 24 25 25 26 26 27 27 28 28 29 30 30 31 32 33 33 34
15 16 16 16 17 18 18 18 19 19 20 20 21 21 21 22 22 23 23 23 23 24 25 25 25 26 26 27 27 27 28 29 29 30 30 30 31 32 33 34 34 35 35
17 17 18 18 19 19 20 20 21 21 22 22 23 23 23 24 24 25 25 25 26 26 27 28 28 28 29 29 29 29 30 30 31 32 32 32 32 33 34 35 36 36 36
18 19 19 20 20 21 22 22 23 23 24 24 25 25 25 26 26 27 27 27 27 28 29 30 30 30 31 31 32 32 32 32 33 33 34 34 34 35 34 35 37 38 37
Wind_Direction
254 256 256 257 258 261 267 268 266 265 262 260 258 256 253 252 250 249 251 252 252 251 249 243 239 237 232 229 226 228 229 227 226 227 227 224 219 214 212 213 214 215 210
252 254 251 251 253 261 267 267 269 269 263 261 258 252 250 249 253 253 251 250 251 251 253 247 243 239 234 232 231 230 230 231 229 230 231 230 227 224 224 225 226 227 226
248 248 247 248 252 259 265 265 267 266 261 258 256 252 250 250 253 256 254 251 250 251 252 251 245 242 238 236 236 234 233 233 233 231 232 233 231 230 230 232 232 233 235
242 242 243 246 251 259 263 265 265 263 262 261 258 256 254 254 255 256 254 254 252 252 252 251 249 248 244 242 240 238 236 235 235 234 235 234 234 234 235 236 236 236 238
235 234 238 242 248 255 261 264 265 265 268 269 266 260 259 258 257 257 256 256 254 252 251 252 251 249 247 246 244 241 239 239 238 239 238 237 236 237 237 238 238 240 240
232 233 233 239 246 253 258 262 265 268 268 269 268 263 261 260 260 259 261 258 255 254 253 252 252 250 249 249 246 243 241 241 240 241 241 241 240 240 240 240 240 241 243
231 230 233 238 243 250 257 259 261 267 267 267 268 266 265 262 260 259 263 259 254 254 252 253 254 253 251 249 248 247 246 245 243 243 245 245 244 243 244 243 242 243 244
222 222 227 231 244 251 254 255 259 263 268 271 273 271 270 266 264 264 262 258 258 257 254 255 255 254 254 251 249 251 249 248 249 248 249 250 247 247 246 247 247 246 246
211 219 224 234 242 247 250 255 259 264 271 275 275 276 273 270 269 268 266 262 259 258 257 255 256 256 255 254 252 251 250 249 249 250 251 252 251 250 249 249 249 248 248
207 216 223 228 235 244 249 256 263 269 272 273 274 275 274 274 273 270 269 269 266 262 262 260 260 259 257 257 256 254 252 251 251 252 250 250 251 252 251 252 250 250 250
204 207 211 215 225 238 248 256 267 270 273 277 280 280 278 279 278 276 275 275 275 274 271 267 265 263 262 261 260 259 257 253 252 253 251 251 251 251 252 253 252 251 252
197 202 206 213 226 238 251 259 263 268 274 278 282 284 284 285 285 285 285 283 282 279 275 272 271 269 268 266 264 261 259 257 256 255 253 254 254 254 253 253 252 251 252
198 206 213 215 223 237 246 255 264 272 276 281 285 287 288 289 289 292 295 293 288 284 281 278 276 274 273 270 270 265 263 263 262 260 258 258 258 257 256 255 254 253 251
202 210 217 225 237 242 249 258 266 272 279 284 287 293 295 295 295 296 296 297 296 292 289 284 281 280 280 276 275 273 269 269 267 266 264 263 262 260 258 257 257 256 254
207 210 218 226 238 249 254 261 266 274 282 287 292 295 296 297 297 297 297 298 299 297 295 291 287 285 283 281 277 275 273 271 269 268 266 266 264 263 260 259 258 257 256
208 213 217 229 242 250 260 265 268 276 284 290 296 297 296 298 299 298 299 300 301 302 300 298 294 290 288 286 284 280 278 276 274 272 270 269 267 265 262 260 260 259 258
213 219 225 233 241 253 262 267 274 281 285 291 296 297 297 298 299 300 301 303 303 303 301 300 297 295 292 291 289 287 283 280 278 276 274 272 269 267 265 263 261 260 261
216 225 233 239 251 260 266 271 277 282 286 290 293 294 295 296 298 300 301 303 305 305 304 302 300 297 295 293 291 290 288 285 282 280 277 275 273 271 269 267 265 263 263
226 235 243 249 258 264 268 271 275 281 286 290 292 293 295 296 297 299 300 302 304 305 305 304 303 300 297 293 291 290 288 287 285 283 281 279 277 275 273 272 270 269 267
235 244 250 256 261 268 272 275 277 281 285 287 289 291 294 296 298 299 300 301 303 303 303 303 303 302 301 297 294 292 290 290 287 285 284 282 281 279 277 275 273 272 270
245 250 255 259 263 268 273 276 278 281 284 286 288 290 293 295 297 298 299 300 301 302 302 301 301 301 301 300 297 295 293 292 291 289 286 284 283 282 280 279 277 275 273
252 255 259 263 266 270 274 278 279 281 283 285 286 289 291 293 295 297 298 298 299 300 300 299 299 299 299 299 298 297 295 293 292 292 290 288 286 284 283 282 280 277 276
255 260 263 266 269 272 276 280 282 283 284 285 286 288 289 291 293 295 296 296 297 298 299 299 299 299 299 299 298 297 296 295 293 293 292 290 289 287 285 283 282 281 279
259 263 267 269 271 274 276 279 282 283 284 286 287 287 288 289 292 293 293 294 295 296 298 299 299 299 299 299 299 298 297 295 294 293 291 291 289 288 287 285 283 282 280
263 266 269 271 274 276 278 279 282 284 284 285 286 287 288 289 290 291 291 292 293 294 295 296 297 298 298 298 298 298 297 295 295 294 292 291 289 288 287 286 285 283 282
266 268 271 273 275 276 278 280 283 285 285 286 286 287 288 289 289 290 290 291 292 293 294 295 296 297 297 297 297 297 297 296 295 294 292 292 290 289 287 286 285 284 282
Height
5871 5872 5874 5875 5876 5876 5877 5878 5878 5879 5880 5881 5882 5883 5884 5885 5886 5887 5888 5889 5890 5891 5892 5893 5894 5895 5896 5897 5898 5899 5901 5901 5902 5903 5904 5905 5906 5907 5908 5909 5910 5911 5911
5869 5870 5871 5872 5874 5874 5875 5875 5876 5877 5878 5879 5879 5880 5881 5882 5883 5884 5885 5886 5887 5888 5889 5890 5891 5892 5894 5895 5896 5897 5899 5900 5901 5902 5903 5904 5905 5906 5907 5908 5909 5910 5911
5866 5868 5869 5870 5871 5872 5873 5873 5874 5874 5875 5876 5877 5878 5878 5879 5880 5881 5882 5883 5884 5885 5886 5887 5888 5889 5891 5892 5893 5895 5896 5897 5898 5899 5901 5902 5903 5904 5906 5907 5908 5909 5910
5864 5865 5867 5868 5869 5870 5870 5871 5871 5872 5873 5874 5874 5875 5876 5876 5877 5878 5879 5880 5881 5882 5883 5884 5885 5886 5887 5889 5890 5891 5893 5894 5895 5897 5898 5900 5901 5902 5903 5905 5906 5907 5908
5862 5863 5865 5866 5867 5868 5868 5869 5869 5870 5871 5871 5872 5872 5873 5874 5874 5875 5876 5877 5877 5878 5879 5880 5881 5883 5884 5885 5886 5888 5889 5891 5892 5894 5895 5897 5898 5899 5901 5902 5903 5905 5906
5860 5861 5863 5864 5865 5866 5866 5867 5867 5868 5869 5869 5869 5870 5871 5871 5871 5872 5873 5873 5874 5875 5876 5877 5878 5879 5880 5881 5882 5884 5885 5887 5888 5890 5892 5893 5894 5896 5898 5899 5900 5902 5903
5857 5859 5861 5862 5863 5864 5865 5865 5866 5866 5867 5867 5867 5868 5868 5868 5869 5870 5870 5870 5871 5872 5872 5873 5874 5875 5876 5877 5879 5880 5881 5882 5884 5886 5887 5889 5890 5892 5894 5895 5897 5898 5899
5856 5857 5859 5860 5861 5862 5863 5863 5864 5864 5864 5865 5865 5865 5866 5867 5866 5866 5867 5867 5868 5868 5868 5869 5870 5871 5872 5873 5874 5875 5877 5878 5879 5881 5882 5884 5886 5887 5889 5890 5892 5894 5895
5855 5856 5857 5859 5860 5860 5861 5862 5862 5862 5863 5863 5863 5864 5864 5864 5863 5864 5864 5864 5864 5865 5865 5865 5866 5867 5868 5869 5870 5871 5872 5874 5875 5876 5878 5879 5880 5882 5883 5885 5887 5888 5890
5853 5855 5856 5857 5858 5859 5859 5860 5860 5860 5861 5861 5861 5861 5862 5861 5861 5861 5861 5861 5861 5862 5862 5862 5862 5863 5863 5864 5865 5867 5868 5869 5870 5871 5872 5873 5875 5876 5878 5879 5881 5883 5884
5852 5853 5855 5856 5857 5857 5858 5858 5858 5859 5859 5859 5859 5859 5859 5859 5859 5859 5859 5859 5858 5858 5858 5858 5859 5859 5859 5860 5860 5861 5862 5864 5865 5866 5867 5868 5869 5871 5872 5874 5875 5877 5878
5851 5853 5854 5855 5855 5856 5856 5856 5857 5857 5857 5857 5857 5857 5857 5857 5857 5857 5856 5856 5856 5856 5855 5855 5855 5855 5855 5856 5856 5857 5857 5858 5859 5860 5861 5862 5863 5865 5866 5867 5869 5870 5872
5851 5852 5853 5854 5854 5855 5855 5855 5855 5856 5856 5856 5856 5855 5855 5855 5855 5854 5854 5854 5853 5853 5852 5852 5852 5851 5851 5852 5851 5852 5852 5853 5853 5854 5855 5856 5857 5858 5859 5860 5862 5863 5865
5850 5851 5852 5853 5853 5853 5854 5854 5854 5854 5854 5854 5854 5854 5853 5853 5853 5852 5852 5851 5851 5850 5849 5849 5848 5848 5848 5847 5847 5847 5848 5848 5848 5848 5849 5850 5851 5852 5852 5854 5855 5856 5857
5849 5850 5851 5851 5852 5852 5852 5853 5853 5853 5853 5853 5853 5852 5852 5851 5851 5850 5849 5849 5849 5847 5846 5846 5845 5845 5844 5843 5843 5843 5843 5843 5843 5843 5843 5843 5844 5845 5845 5846 5847 5848 5849
5848 5849 5850 5850 5850 5851 5851 5852 5852 5852 5852 5851 5851 5850 5850 5849 5849 5848 5847 5846 5846 5845 5843 5842 5842 5841 5840 5839 5839 5838 5838 5838 5837 5837 5837 5837 5837 5838 5838 5839 5839 5840 5841
5847 5848 5848 5849 5849 5850 5850 5850 5850 5850 5850 5850 5849 5849 5848 5847 5847 5846 5845 5844 5843 5842 5841 5840 5838 5837 5836 5835 5834 5833 5833 5832 5831 5831 5831 5830 5830 5830 5830 5831 5832 5832 5833
5845 5846 5847 5848 5848 5848 5849 5849 5849 5849 5848 5848 5847 5847 5846 5845 5844 5843 5843 5841 5840 5839 5838 5836 5835 5834 5832 5831 5830 5829 5828 5826 5826 5825 5824 5824 5823 5823 5823 5823 5823 5824 5824
5844 5845 5846 5846 5847 5847 5847 5847 5847 5846 5846 5845 5845 5844 5843 5843 5842 5841 5840 5838 5837 5836 5834 5833 5831 5830 5828 5827 5825 5824 5822 5821 5820 5819 5818 5817 5817 5816 5815 5815 5815 5815 5816
5842 5843 5844 5844 5845 5845 5845 5845 5844 5844 5843 5843 5842 5841 5840 5840 5839 5837 5836 5835 5833 5832 5830 5829 5827 5825 5823 5822 5820 5819 5817 5816 5814 5813 5812 5811 5810 5809 5808 5807 5807 5807 5807
5840 5841 5842 5842 5842 5842 5842 5842 5841 5841 5840 5840 5839 5838 5837 5836 5835 5834 5832 5831 5829 5828 5826 5824 5823 5821 5819 5817 5815 5814 5812 5810 5808 5807 5805 5804 5802 5801 5800 5799 5798 5797 5797
5837 5838 5838 5839 5839 5839 5839 5838 5838 5837 5837 5836 5835 5834 5833 5832 5830 5829 5828 5826 5825 5823 5821 5819 5818 5816 5814 5811 5810 5808 5806 5804 5802 5800 5798 5796 5794 5793 5791 5790 5789 5788 5787
5834 5834 5835 5835 5835 5835 5834 5834 5834 5833 5832 5832 5831 5830 5828 5827 5826 5824 5823 5821 5820 5818 5816 5814 5812 5810 5808 5806 5804 5801 5799 5797 5795 5793 5791 5788 5786 5784 5782 5781 5779 5778 5777
5830 5830 5831 5831 5831 5830 5830 5830 5829 5828 5828 5827 5825 5824 5823 5822 5820 5819 5817 5815 5814 5812 5810 5808 5806 5804 5801 5799 5797 5795 5792 5790 5787 5784 5782 5780 5778 5775 5773 5771 5769 5768 5767
5825 5826 5826 5826 5826 5826 5825 5825 5824 5823 5822 5821 5820 5819 5817 5816 5814 5813 5811 5809 5808 5805 5803 5801 5799 5797 5794 5791 5789 5786 5784 5782 5779 5776 5773 5771 5769 5766 5764 5761 5759 5757 5756
5820 5821 5821 5821 5821 5820 5820 5819 5818 5817 5817 5815 5814 5812 5811 5809 5808 5806 5804 5803 5801 5798 5796 5794 5791 5789 5786 5783 5780 5777 5775 5772 5770 5767 5763 5761 5759 5756 5755 5752 5748 5746 5744